Looking for the latest version? Download cpg1.5.44.zip (19.0 MB)
Home / Plugins / 1.4.x
Name Modified Size Downloads / Week Status
Parent folder
cpg1.4.x_plugin_easy-rss_v1.3.zip 2010-03-05 9.5 kB 0
cpg1.4.x_plugin_slider_v2.16.zip 2010-03-05 46.1 kB 0
cpg1.4.x_plugin_sef-urls_v1.45.zip 2010-03-05 13.3 kB 11 weekly downloads
cpg1.4.x_plugin_remove-modify_v1.2.zip 2010-03-05 3.7 kB 0
cpg1.4.x_plugin_recaptcha_v2.7.zip 2010-03-05 55.6 kB 0
cpg1.4.x_plugin_pixaco_v1.1.zip 2010-03-05 11.1 kB 0
cpg1.4.x_plugin_photo-shop_v1.4.1.zip 2010-03-05 197.3 kB 0
cpg1.4.x_plugin_photocomment_v1.1.zip 2010-03-05 6.7 kB 0
cpg1.4.x_plugin_multilingual_v1.1.zip 2010-03-05 23.6 kB 0
cpg1.4.x_plugin_mosaic_v1.1.zip 2010-03-05 44.7 kB 0
cpg1.4.x_plugin_light-box_v1.4.zip 2010-03-05 128.6 kB 11 weekly downloads
cpg1.4.x_plugin_keyword-list_v2.1.zip 2010-03-05 35.2 kB 0
cpg1.4.x_plugin_iscroll_v2.2.zip 2010-03-05 234.6 kB 11 weekly downloads
cpg1.4.x_plugin_imageflow_v2.9.zip 2010-03-05 154.5 kB 0
cpg1.4.x_plugin_minicms_v2.1.zip 2010-03-03 2.9 MB 0
cpg1.4.x_plugin_highslide_v3.5.zip 2010-03-03 828.0 kB 0
cpg1.4.x_plugin_album-addfav_v1.2.zip 2010-03-03 14.7 kB 0
cpg1.4.x_plugin_google-analytics_v1.3.zip 2010-03-03 18.7 kB 0
cpg1.4.x_plugin_facebook_v1.4.zip 2010-03-03 31.5 kB 0
cpg1.4.x_plugin_enlargeit_v2.16.zip 2010-03-03 999.0 kB 0
cpg1.4.x_plugin_easy-rss_v1.2.zip 2010-03-03 22.4 kB 0
cpg1.4.x_plugin_display-fields_v1.3.zip 2010-03-03 21.2 kB 0
cpg1.4.x_plugin_copper-ad_v1.2.5.zip 2010-03-03 135.3 kB 0
cpg1.4.x_plugin_brainfeeder_v1.1.zip 2010-03-03 47.4 kB 0
cpg1.4.x_plugin_bbcode-below-intermediate_v1.3.zip 2010-03-03 6.2 kB 0
cpg1.4.x_plugin_avmaker_v1.3.zip 2010-03-03 82.6 kB 0
cpg1.4.x_plugin_annotate_v1.2.zip 2010-03-03 29.8 kB 0
cpg1.4.x_plugin_adxd-voting_v1.4.zip 2010-03-03 34.8 kB 0
cpg1.4.x_plugin_adv-caption_v1.2.zip 2010-03-03 6.2 kB 0
cpg1.4.x_plugin_active-search_v1.1.zip 2010-03-03 66.1 kB 0
cpg1.4.x_plugin_smart-catlist_v1.1.zip 2010-01-10 14.5 kB 0
cpg1.4.x_plugin_searchbox_v1.0.zip 2010-01-10 4.5 kB 0
cpg1.4.x_plugin_link-append_v1.0.zip 2010-01-07 3.2 kB 0
cpg1.4.x_plugin_cities_v0.2.zip 2009-12-10 12.4 kB 0
cpg1 .4.x_plugin_jupload_v4.0.0_rc3.zip 2009-11-22 450.2 kB 0
cpg1.4.x_plugin_fastedit_v1.1.zip 2009-09-10 5.9 kB 0
cpg1.4.x_plugin_group-pictures_v1.0.zip 2009-08-17 4.3 kB 0
cpg1.4.x_plugin_automove_v1.1.zip 2009-08-17 3.9 kB 0
cpg1.4.x_plugin_facebook_v1.3.zip 2009-08-17 14.5 kB 0
cpg1.4.x_plugin_contact_v1.3.zip 2009-08-17 156.7 kB 0
cpg1.4.x_plugin_remove-edit_v1.1.zip 2009-08-17 3.3 kB 0
cpg1.4.x_plugin_swekey_v1.2.zip 2009-05-07 28.3 kB 0
cpg1.4.x_plugin_jupload_v3.5.1.zip 2009-05-06 451.7 kB 0
cpg1.4.x_plugin_unwanted-metas_v2.1.zip 2009-04-08 4.8 kB 0
cpg1.4.x_plugin_toplevelusers_v1.1.zip 2009-04-08 2.5 kB 0
cpg1.4.x_plugin_sql-mode_v1.1.zip 2009-04-08 5.8 kB 0
cpg1.4.x_plugin_picdownload_v1.2.zip 2009-04-08 4.7 kB 11 weekly downloads
cpg1.4.x_plugin_ocat_1.1.zip 2009-04-08 6.0 kB 0
cpg1.4.x_plugin_mark_1.2.zip 2009-04-08 43.2 kB 11 weekly downloads
cpg1.4.x_plugin_anis_1.0.zip 2009-04-08 103.5 kB 11 weekly downloads
cpg1.4.x_plugin_master_template_1.2.zip 2009-04-08 58.1 kB 0
cpg1.4.x_plugin_phpmyadmin_v2.11.9.5-1.zip 2009-04-07 817.8 kB 0
cpg1.4.x_plugin_link-target_v1.0.zip 2009-03-29 5.6 kB 0
cpg1.4.x_plugin_cpgforum_v2.0.1a_beta.zip 2009-03-16 176.6 kB 0
cpg1.4.x_plugin_cpgforum_v1.1.3.zip 2009-03-16 98.4 kB 0
cpg1.4.x_plugin_xfeeds_v1.4.zip 2009-03-16 47.1 kB 0
cpg1.4.x_plugin_user-pruning_v1.0.zip 2009-03-16 9.8 kB 0
cpg1.4.x_plugin_usergal-alphatabs_v1.0.zip 2009-03-16 4.6 kB 0
cpg1.4.x_plugin_upload-announce_v1.2.zip 2009-03-16 7.4 kB 0
cpg1.4.x_plugin_update-history_v2.0.1.zip 2009-03-16 20.0 kB 0
cpg1.4.x_plugin_title-filmstrip_v1.0.zip 2009-03-16 2.5 kB 0
cpg1.4.x_plugin_timeline_v0.2.zip 2009-03-16 5.6 kB 0
cpg1.4.x_plugin_thumb-rotate_v0.2.zip 2009-03-16 87.7 kB 0
cpg1.4.x_plugin_tagblitz_1.0.zip 2009-03-16 5.3 kB 0
cpg1.4.x_plugin_stats_v1.1.zip 2009-03-16 12.5 kB 0
cpg1.4.x_plugin_stats-hits_v0.1.zip 2009-03-16 7.0 kB 0
cpg1.4.x_plugin_special-edit_v1.1.zip 2009-03-16 4.5 kB 0
cpg1.4.x_plugin_snapgalaxy_v1.1.zip 2009-03-16 14.5 kB 0
cpg1.4.x_plugin_search-album_v1.08.zip 2009-03-16 17.1 kB 0
cpg1.4.x_plugin_restrict-access_v1.0.zip 2009-03-16 6.3 kB 0
cpg1.4.x_plugin_rcmenu_v2.0.1.zip 2009-03-16 20.5 kB 0
cpg1.4.x_plugin_random-select_v1.01.zip 2009-03-16 8.2 kB 0
cpg1.4.x_plugin_private-messaging-system_v1.1.zip 2009-03-16 39.4 kB 0
cpg1.4.x_plugin_popup-control_v1.0.zip 2009-03-16 2.9 kB 0
cpg1.4.x_plugin_pic-poster_v1.1.zip 2009-03-16 1.9 kB 0
cpg1.4.x_plugin_photo-summary_v2.0.zip 2009-03-16 13.0 kB 0
cpg1.4.x_plugin_photo-of-the-day_v1.02.zip 2009-03-16 104.1 kB 0
cpg1.4.x_plugin_pano-viewer_v1.0.zip 2009-03-16 2.0 kB 0
cpg1.4.x_plugin_pack_v4.zip 2009-03-16 3.3 MB 0
cpg1.4.x_plugin_opensearch_v1.0.zip 2009-03-16 3.0 kB 0
cpg1.4.x_plugin_online-today_v1.0.zip 2009-03-16 3.0 kB 0
cpg1.4.x_plugin_onlinestats_v1.8.zip 2009-03-16 17.3 kB 11 weekly downloads
cpg1.4.x_plugin_newusers_v2.0.zip 2009-03-16 5.9 kB 0
cpg1.4.x_plugin_newsletter_v1.0.zip 2009-03-16 12.1 kB 0
cpg1.4.x_plugin_news-bulletin_v2.zip 2009-03-16 9.8 kB 11 weekly downloads
cpg1.4.x_plugin_multiline-comments_v1.1.zip 2009-03-16 2.3 kB 0
cpg1.4.x_plugin_movie-download_v1.1.zip 2009-03-16 2.2 kB 0
cpg1.4.x_plugin_move-to-public_v1.1.1.zip 2009-03-16 3.6 kB 0
cpg1.4.x_plugin_login-ref_v1.2.zip 2009-03-16 6.2 kB 0
cpg1.4.x_plugin_login-info_v1.3.1.zip 2009-03-16 5.5 kB 0
cpg1.4.x_plugin_loginform_v1.1.zip 2009-03-16 2.3 kB 0
cpg1.4.x_plugin_keywords-add_v1.1.zip 2009-03-16 13.4 kB 0
cpg1.4.x_plugin_keyboard-navigation_v1.1.zip 2009-03-16 2.3 kB 0
cpg1.4.x_plugin_html-embed_v0.2.zip 2009-03-16 1.9 kB 0
cpg1.4.x_plugin_guessgame_v1.1.zip 2009-03-16 34.8 kB 0
cpg1.4.x_plugin_fullsize-access_v1.0.zip 2009-03-16 12.7 kB 0
cpg1.4.x_plugin_fullscreen-slides_v1.0.zip 2009-03-16 422.5 kB 0
cpg1.4.x_plugin_final-extract_v2.3.zip 2009-03-16 15.5 kB 0
cpg1.4.x_plugin_filetypes-editor_v1.0.2.zip 2009-03-16 4.1 kB 0
cpg1.4.x_plugin_file-replacer_v1.0.zip 2009-03-16 2.7 kB 0
cpg1.4.x_plugin_file-move_v1.2.zip 2009-03-16 39.4 kB 0
cpg1.4.x_plugin_file2albummover_v0.1.zip 2009-03-16 4.0 kB 0
cpg1.4.x_plugin_extraanycontent_v1.0.zip 2009-03-16 3.2 kB 0
cpg1.4.x_plugin_easy-rss_v1.1.zip 2009-03-16 10.3 kB 0
cpg1.4.x_plugin_download_v1.3.zip 2009-03-16 4.9 kB 0
cpg1.4.x_plugin_download-resized_v1.2.zip 2009-03-16 6.3 kB 0
cpg1.4.x_plugin_digibug_v0.3.2.zip 2009-03-16 14.7 kB 0
cpg1.4.x_plugin_del_fav_v1.2.zip 2009-03-16 8.9 kB 0
cpg1.4.x_plugin_delete-control_v1.03.zip 2009-03-16 3.2 kB 0
cpg1.4.x_plugin_cute-upload_v1.0.0.zip 2009-03-16 187.8 kB 0
cpg1.4.x_plugin_custom_home_v1.0.zip 2009-03-16 8.0 kB 0
cpg1.4.x_plugin_cpgmart_v2.zip 2009-03-16 34.0 kB 0
cpg1.4.x_plugin_copper-rank_v2.zip 2009-03-16 46.2 kB 0
cpg1.4.x_plugin_control-metas_v1.0.zip 2009-03-16 2.6 kB 0
cpg1.4.x_plugin_control-fullsize_v1.4.zip 2009-03-16 12.1 kB 0
cpg1.4.x_plugin_contact-us_v1.2.zip 2009-03-16 10.3 kB 0
cpg1.4.x_plugin_compress-html_v1.0.zip 2009-03-16 16.4 kB 0
cpg1.4.x_plugin_cat-directory_v1.2.zip 2009-03-16 8.1 kB 0
cpg1.4.x_plugin_captcha_v3.0.zip 2009-03-16 113.0 kB 0
cpg1.4.x_plugin_calendar_v1.1.zip 2009-03-16 15.5 kB 0
cpg1.4.x_plugin_brainfeeder_v0.5.zip 2009-03-16 15.4 kB 0
cpg1.4.x_plugin_backup_v2.3.zip 2009-03-16 39.7 kB 0
cpg1.4.x_plugin_album-summary_v1.0.zip 2009-03-16 15.8 kB 0
cpg1.4.x_plugin_album-fav-boxes_v1.2.5.zip 2009-03-16 4.6 kB 0
cpg1.4.x_plugin_album-directory_v1.1.zip 2009-03-16 13.7 kB 0
cpg1.4.x_plugin_pack_v3.zip 2006-10-31 1.7 MB 0
Totals: 126 Items   15.3 MB 8

Thanks for helping keep SourceForge clean.

Screenshot instructions:
Windows
Mac
Red Hat Linux   Ubuntu

Click URL instructions:
Right-click on ad, choose "Copy Link", then paste here →
(This may not be possible with some types of ads)

More information about our ad policies
X

Briefly describe the problem (required):

Upload screenshot of ad (required):
Select a file, or drag & drop file here.

Please provide the ad click URL, if possible:

Get latest updates about Open Source Projects, Conferences and News.

Sign up for the SourceForge newsletter:

No, thanks